When you browse on this site, cookies collect data to enhance your experience and personalize the content and advertising you see.
Visit our Privacy Policy to learn more. By continuing to use the site, you agree to this use of cookies and data.
  • In Latvia
  • List of Countries
  • For 7 days
  • Water Temperature
  • Weather Map
  • Weather Widgets
  • user-avatar
    Login

    Hourly Weather Jalalabad

    Today, 18 February, Tuesday

    Time Temperature Precipitation Wind Pressure Humidity
    00:00 +14°C° 0 mm 1 mps 712 mmHg 23%
    01:00 +13°C° 0 mm 1 mps 712 mmHg 24%
    02:00 +13°C° 0 mm 1 mps 712 mmHg 24%
    03:00 +12°C° 0 mm 1 mps 711 mmHg 25%
    04:00 +12°C° 0 mm 1 mps 710 mmHg 26%
    05:00 +12°C° 0 mm 1 mps 710 mmHg 26%
    06:00 +12°C° 0 mm 1 mps 710 mmHg 27%
    07:00 +12°C° 0 mm 1 mps 710 mmHg 28%
    08:00 +12°C° 0 mm 1 mps 710 mmHg 28%
    09:00 +14°C° 0 mm 1 mps 710 mmHg 24%
    10:00 +16°C° 0 mm 1 mps 710 mmHg 20%
    11:00 +19°C° 0 mm 1 mps 711 mmHg 16%
    12:00 +20°C° 0 mm 1 mps 710 mmHg 15%
    13:00 +21°C° 0 mm 1 mps 709 mmHg 14%
    14:00 +22°C° 0 mm 1 mps 709 mmHg 13%
    15:00 +22°C° 0 mm 1 mps 709 mmHg 14%
    16:00 +22°C° 0 mm 1 mps 708 mmHg 14%
    17:00 +23°C° 0 mm 1 mps 708 mmHg 15%
    18:00 +21°C° 0 mm 1 mps 708 mmHg 19%
    19:00 +17°C° 0 mm 0 mps 709 mmHg 23%
    20:00 +15°C° 0 mm 0 mps 709 mmHg 28%
    21:00 +15°C° 0 mm 0 mps 709 mmHg 28%
    22:00 +15°C° 0 mm 1 mps 709 mmHg 28%
    23:00 +15°C° 0 mm 1 mps 709 mmHg 28%

    Tomorrow, 19 February, Wednesday

    Time Temperature Precipitation Wind Pressure Humidity
    00:00 +14°C° 0 mm 1 mps 709 mmHg 29%
    01:00 +14°C° 0 mm 1 mps 708 mmHg 30%
    02:00 +13°C° 0 mm 1 mps 708 mmHg 31%
    03:00 +13°C° 0 mm 1 mps 708 mmHg 32%
    04:00 +12°C° 0 mm 1 mps 708 mmHg 33%
    05:00 +12°C° 0 mm 1 mps 707 mmHg 34%
    06:00 +12°C° 0 mm 1 mps 708 mmHg 35%
    07:00 +13°C° 0 mm 1 mps 708 mmHg 36%
    08:00 +13°C° 0 mm 1 mps 709 mmHg 36%
    09:00 +14°C° 0 mm 2 mps 709 mmHg 33%
    10:00 +16°C° 0 mm 3 mps 709 mmHg 29%
    11:00 +17°C° 0 mm 4 mps 709 mmHg 26%
    12:00 +18°C° 0 mm 4 mps 709 mmHg 26%
    13:00 +18°C° 0 mm 4 mps 709 mmHg 27%
    14:00 +19°C° 0 mm 4 mps 709 mmHg 27%
    15:00 +19°C° 0 mm 4 mps 708 mmHg 28%
    16:00 +18°C° 0 mm 4 mps 708 mmHg 29%
    17:00 +18°C° 0 mm 4 mps 708 mmHg 30%
    18:00 +17°C° 0.1 mm 3 mps 709 mmHg 36%
    19:00 +16°C° 0.1 mm 3 mps 710 mmHg 41%
    20:00 +14°C° 0.1 mm 3 mps 710 mmHg 46%
    21:00 +14°C° 1.4 mm 2 mps 710 mmHg 58%
    22:00 +13°C° 1.4 mm 2 mps 710 mmHg 71%
    23:00 +11°C° 1.4 mm 1 mps 710 mmHg 83%

    Day after tomorrow, 20 February, Thursday

    Time Temperature Precipitation Wind Pressure Humidity
    00:00 +10°C° 1.5 mm 2 mps 710 mmHg 84%
    01:00 +10°C° 1.5 mm 3 mps 710 mmHg 84%
    02:00 +9°C° 1.5 mm 3 mps 710 mmHg 85%
    03:00 +9°C° 2 mm 3 mps 710 mmHg 84%
    04:00 +9°C° 2 mm 3 mps 710 mmHg 84%
    05:00 +9°C° 2 mm 3 mps 709 mmHg 83%
    06:00 +9°C° 0.6 mm 3 mps 710 mmHg 82%
    07:00 +9°C° 0.6 mm 3 mps 711 mmHg 82%
    08:00 +10°C° 0.6 mm 3 mps 711 mmHg 81%
    09:00 +10°C° 0.7 mm 3 mps 711 mmHg 78%
    10:00 +11°C° 0.7 mm 3 mps 711 mmHg 76%
    11:00 +11°C° 0.7 mm 3 mps 711 mmHg 73%
    12:00 +12°C° 0.5 mm 4 mps 711 mmHg 73%
    13:00 +12°C° 0.5 mm 4 mps 711 mmHg 72%
    14:00 +12°C° 0.5 mm 4 mps 710 mmHg 72%
    15:00 +13°C° 0.1 mm 4 mps 710 mmHg 68%
    16:00 +14°C° 0.1 mm 4 mps 710 mmHg 64%
    17:00 +14°C° 0.1 mm 4 mps 711 mmHg 60%
    18:00 +14°C° 0 mm 3 mps 711 mmHg 62%
    19:00 +14°C° 0 mm 2 mps 711 mmHg 63%
    20:00 +14°C° 0 mm 2 mps 711 mmHg 65%
    21:00 +13°C° 0 mm 2 mps 711 mmHg 64%
    22:00 +13°C° 0 mm 2 mps 711 mmHg 64%
    23:00 +13°C° 0 mm 2 mps 711 mmHg 63%

    21 February, Friday

    Time Temperature Precipitation Wind Pressure Humidity
    00:00 +12°C° 0 mm 2 mps 711 mmHg 61%
    01:00 +12°C° 0 mm 1 mps 711 mmHg 59%
    02:00 +12°C° 0 mm 1 mps 711 mmHg 58%
    03:00 +12°C° 0 mm 1 mps 711 mmHg 56%
    04:00 +11°C° 0 mm 1 mps 710 mmHg 55%
    05:00 +11°C° 0 mm 1 mps 710 mmHg 54%
    06:00 +12°C° 0 mm 1 mps 711 mmHg 53%
    07:00 +12°C° 0 mm 1 mps 711 mmHg 53%
    08:00 +12°C° 0 mm 1 mps 711 mmHg 52%
    09:00 +14°C° 0 mm 1 mps 711 mmHg 46%
    10:00 +16°C° 0 mm 1 mps 712 mmHg 40%
    11:00 +19°C° 0 mm 1 mps 712 mmHg 34%
    18:00 +21°C° 0 mm 1 mps 712 mmHg 30%
    19:00 +20°C° 0 mm 1 mps 712 mmHg 35%
    20:00 +19°C° 0 mm 1 mps 713 mmHg 39%
    21:00 +18°C° 0 mm 1 mps 713 mmHg 40%
    22:00 +18°C° 0 mm 1 mps 713 mmHg 40%
    23:00 +18°C° 0 mm 1 mps 713 mmHg 41%

    22 February, Saturday

    Time Temperature Precipitation Wind Pressure Humidity
    00:00 +16°C° 0 mm 1 mps 712 mmHg 41%
    01:00 +15°C° 0 mm 1 mps 712 mmHg 41%
    02:00 +15°C° 0 mm 1 mps 712 mmHg 41%
    03:00 +14°C° 0 mm 1 mps 712 mmHg 41%
    04:00 +14°C° 0 mm 1 mps 712 mmHg 42%
    05:00 +14°C° 0 mm 1 mps 711 mmHg 42%
    06:00 +14°C° 0 mm 1 mps 712 mmHg 42%
    07:00 +15°C° 0 mm 1 mps 712 mmHg 42%
    08:00 +15°C° 0 mm 1 mps 713 mmHg 42%
    09:00 +18°C° 0 mm 1 mps 713 mmHg 37%
    10:00 +19°C° 0 mm 1 mps 714 mmHg 32%
    11:00 +21°C° 0 mm 1 mps 714 mmHg 26%
    12:00 +22°C° 0 mm 1 mps 714 mmHg 25%
    13:00 +23°C° 0 mm 1 mps 713 mmHg 24%
    14:00 +23°C° 0 mm 1 mps 713 mmHg 23%
    15:00 +21°C° 0 mm 0 mps 713 mmHg 23%
    16:00 +21°C° 0 mm 0 mps 712 mmHg 23%
    17:00 +22°C° 0 mm 0 mps 712 mmHg 23%
    18:00 +20°C° 0 mm 0 mps 713 mmHg 29%
    19:00 +21°C° 0 mm 1 mps 713 mmHg 34%
    20:00 +19°C° 0 mm 1 mps 713 mmHg 39%
    21:00 +19°C° 0 mm 1 mps 713 mmHg 40%
    22:00 +18°C° 0 mm 1 mps 713 mmHg 40%
    23:00 +17°C° 0 mm 2 mps 713 mmHg 41%

    23 February, Sunday

    Time Temperature Precipitation Wind Pressure Humidity
    00:00 +16°C° 0 mm 1 mps 713 mmHg 41%
    01:00 +16°C° 0 mm 1 mps 712 mmHg 42%
    02:00 +15°C° 0 mm 1 mps 712 mmHg 43%
    03:00 +15°C° 0 mm 1 mps 712 mmHg 43%
    04:00 +15°C° 0 mm 1 mps 711 mmHg 44%
    05:00 +14°C° 0 mm 1 mps 711 mmHg 45%
    06:00 +14°C° 0 mm 1 mps 711 mmHg 45%
    07:00 +15°C° 0 mm 1 mps 711 mmHg 45%
    08:00 +15°C° 0 mm 1 mps 712 mmHg 45%
    09:00 +18°C° 0 mm 1 mps 712 mmHg 39%
    10:00 +19°C° 0 mm 1 mps 712 mmHg 34%
    11:00 +21°C° 0 mm 1 mps 712 mmHg 29%
    12:00 +22°C° 0 mm 1 mps 712 mmHg 27%
    13:00 +23°C° 0 mm 1 mps 712 mmHg 25%
    14:00 +23°C° 0 mm 1 mps 712 mmHg 24%
    15:00 +24°C° 0 mm 1 mps 711 mmHg 24%
    16:00 +24°C° 0 mm 1 mps 711 mmHg 24%
    17:00 +22°C° 0 mm 0 mps 711 mmHg 24%
    18:00 +20°C° 0 mm 0 mps 711 mmHg 29%
    19:00 +19°C° 0 mm 0 mps 711 mmHg 34%
    20:00 +20°C° 0 mm 1 mps 712 mmHg 40%
    21:00 +19°C° 0 mm 1 mps 712 mmHg 39%
    22:00 +19°C° 0 mm 1 mps 712 mmHg 39%
    23:00 +17°C° 0 mm 2 mps 712 mmHg 39%
    Show more